Location: *
(24.1434°N, 56.8729°E)
Time: 20:29:56
(UTC+00:00)

COSMOS 2455 - Pass Details

Date: 09 April 2020
Orbit: 900 x 910 km, 67.1° (Epoch: 25 May)

Event Time Altitude Azimuth Distance (km) Brightness Sun altitude
Rises 16:41:06 0° 345° (NNW) 3,536 6.5 -29.0°
Reaches altitude 10° 16:43:43 10° 351° (N) 2,593 5.6 -29.5°
Enters shadow 16:47:35 36° 19° (NNE) 1,409 3.8 -30.3°
